Location: Nora Junction
(43.1400°N, 93.0163°W)
Time: 14:18:00
(UTC+00:00)

SL-16 R/B - Visible Passes

Search period start: 14 February 2026 00:00
Search period end: 24 February 2026 00:00
Orbit: 841 x 846 km, 71.0° (Epoch: 13 February)

Date Brightness Start Highest point End Pass type
(mag) Time Alt. Az. Time Alt. Az. Time Alt. Az.
14 Feb 2.1 01:45:25 10° NNW 01:51:04 67° ENE 01:51:37 62° E visible
14 Feb 4.6 03:30:51 10° WNW 03:33:32 17° W 03:33:32 17° W visible
15 Feb 2.1 01:30:56 10° NNW 01:36:35 64° ENE 01:38:32 40° SE visible
15 Feb 4.4 03:16:16 10° WNW 03:20:06 19° W 03:20:29 19° WSW visible
16 Feb 2.2 01:16:28 10° NNW 01:22:06 61° ENE 01:25:43 22° SE visible
16 Feb 4.4 03:01:41 10° NW 03:05:38 20° W 03:07:40 16° SW visible
17 Feb 2.2 01:02:00 10° NNW 01:07:36 59° ENE 01:13:11 10° SE visible
17 Feb 4.4 02:47:08 10° NW 02:51:12 21° W 02:55:15 10° SSW visible
18 Feb 2.3 00:47:32 10° NNW 00:53:07 57° ENE 00:58:40 10° SE visible
18 Feb 4.4 02:32:34 10° NW 02:36:45 21° W 02:40:54 10° SSW visible
19 Feb 2.3 00:33:03 10° NNW 00:38:38 54° ENE 00:44:10 10° SE visible
19 Feb 4.4 02:18:00 10° NW 02:22:17 22° W 02:26:33 10° SSW visible
20 Feb 2.4 00:18:36 10° NNW 00:24:09 52° ENE 00:29:39 10° SE visible
20 Feb 4.4 02:03:27 10° NW 02:07:50 23° WSW 02:12:11 10° SSW visible
21 Feb 4.4 01:48:54 10° NW 01:53:22 24° WSW 01:57:49 10° SSW visible
22 Feb 4.4 01:34:21 10° NW 01:38:55 25° WSW 01:43:27 10° SSW visible
23 Feb 4.4 01:19:49 10° NW 01:24:27 27° WSW 01:29:05 10° SSW visible
